EW9592 Weather Reports


Display with metric or nautical units.
time (UTC)temp
F
wind
direction
speed
MPH
gust
MPH
rain 1hr
in
rain 24hr
in
rain mn
in
humidity
%
barometer
mb
20260902124505 71 134 0.0 0.0 0.00 0.00 0.00 92 1019.3
20260902123003 70 134 0.0 0.0 0.00 0.00 0.00 92 1019.1
20260902121501 70 134 0.0 0.0 0.00 0.00 0.00 92 1018.9
20260902120002 70 134 0.0 0.0 0.00 0.00 0.00 92 1018.9
20260902114559 69 134 0.0 0.0 0.00 0.00 0.00 92 1018.8
20260902113105 69 134 0.0 0.0 0.00 0.00 0.00 92 1018.5
20260902111556 69 134 0.0 0.0 0.00 0.00 0.00 92 1018.5
20260902110057 69 134 0.0 0.0 0.00 0.00 0.00 92 1018.5
20260902104556 70 134 0.0 0.0 0.00 0.00 0.00 92 1018.4
20260902103052 70 134 0.0 0.0 0.00 0.00 0.00 92 1018.2
20260902101600 70 134 0.0 0.0 0.00 0.00 0.00 92 1018.1
20260902100105 70 134 0.0 0.0 0.00 0.00 0.00 92 1018.1
20260902094548 70 134 0.0 0.0 0.00 0.00 0.00 92 1018.1
20260902093050 70 134 0.0 0.0 0.00 0.00 0.00 92 1017.8
20260902091545 70 134 0.0 0.0 0.00 0.00 0.00 92 1017.7
20260902090044 70 134 0.0 0.0 0.00 0.00 0.00 92 1017.6
20260902084556 70 134 0.0 0.0 0.00 0.00 0.00 92 1017.6
20260902083046 70 134 0.0 0.0 0.00 0.00 0.00 92 1017.7
20260902081548 71 134 0.0 0.0 0.00 0.00 0.00 92 1017.5
20260902080041 71 134 0.0 0.0 0.00 0.00 0.00 92 1017.4
20260902074540 71 134 0.0 0.0 0.00 0.00 0.00 91 1017.3
20260902073049 71 134 0.0 0.0 0.00 0.00 0.00 91 1017.3
20260902071540 71 134 0.0 0.0 0.00 0.00 0.00 91 1017.3
20260902070039 71 134 0.0 0.0 0.00 0.00 0.00 91 1017.3
20260902064547 71 134 0.0 0.0 0.00 0.00 0.00 91 1017.4
20260902063046 71 134 0.0 0.0 0.00 0.00 0.00 91 1017.5
20260902061534 72 134 0.0 0.0 0.00 0.00 0.00 91 1017.5
20260902060035 72 134 0.0 0.0 0.00 0.00 0.00 91 1017.6
20260902054536 72 134 0.0 0.0 0.00 0.00 0.00 91 1017.5
20260902053031 72 134 0.0 0.0 0.00 0.00 0.00 91 1017.6
20260902051530 72 134 0.0 0.0 0.00 0.00 0.00 91 1017.5
20260902050028 72 134 0.0 0.0 0.00 0.00 0.00 91 1017.5
20260902044527 73 134 0.0 0.0 0.00 0.00 0.00 91 1017.4
20260902043025 73 134 0.0 0.0 0.00 0.00 0.00 91 1017.5
20260902041525 73 134 0.0 0.0 0.00 0.00 0.00 91 1017.5
20260902040024 73 134 0.0 0.0 0.00 0.00 0.00 91 1017.4
20260902034524 73 134 0.0 0.0 0.00 0.00 0.00 91 1017.4
20260902033021 73 134 0.0 0.0 0.00 0.00 0.00 91 1017.5
20260902031520 74 134 0.0 0.0 0.00 0.00 0.00 91 1017.5
20260902030019 74 134 0.0 0.0 0.00 0.00 0.00 91 1017.5
20260902024520 74 134 0.0 0.0 0.00 0.00 0.00 90 1017.5
20260902023019 75 134 0.0 0.0 0.00 0.00 0.00 90 1017.4
20260902021518 75 134 0.0 0.0 0.00 0.00 0.00 90 1017.4
20260902020021 76 134 0.0 0.0 0.00 0.00 0.00 90 1017.4
20260902014531 76 134 0.0 0.0 0.00 0.00 0.00 90 1017.3
20260902013018 77 134 0.0 0.0 0.00 0.00 0.00 89 1017.3
20260902011534 77 134 0.0 0.0 0.00 0.00 0.00 89 1017.1
20260902010016 78 134 0.0 0.0 0.00 0.00 0.00 89 1016.9
20260902004514 79 134 0.0 0.0 0.00 0.00 0.00 89 1016.8
20260902003014 80 134 0.0 0.0 0.00 0.00 0.00 88 1016.7
20260902001515 81 134 0.0 0.0 0.00 0.00 0.00 87 1016.7
20260902000014 81 134 0.0 0.0 0.00 0.00 0.00 87 1016.8
20260901234513 82 134 0.0 0.0 0.00 0.00 0.00 86 1016.9
20260901233013 83 134 0.0 0.0 0.00 0.00 0.00 83 1017.0
20260901231513 84 134 0.0 0.0 0.00 0.00 0.00 82 1017.0
20260901230012 85 134 0.0 0.0 0.00 0.00 0.00 79 1017.0
20260901224512 86 134 0.0 0.0 0.00 0.00 0.00 77 1017.1
20260901223012 87 134 0.0 0.0 0.00 0.00 0.00 75 1017.0
20260901221510 87 134 0.0 0.0 0.00 0.00 0.00 72 1016.8
20260901220010 89 134 0.0 1.0 0.00 0.00 0.00 75 1016.8
20260901214531 89 141 0.0 0.0 0.00 0.00 0.00 73 1016.7
20260901213009 89 141 0.0 1.0 0.00 0.00 0.00 69 1016.7
20260901211509 89 278 0.0 0.0 0.00 0.00 0.00 69 1016.8
20260901210009 90 141 0.0 0.0 0.00 0.00 0.00 68 1016.9
20260901204505 91 141 0.0 1.0 0.00 0.00 0.00 61 1017.0
20260901203004 92 105 0.0 1.0 0.00 0.00 0.00 64 1017.1
20260901201501 92 236 0.0 1.0 0.00 0.00 0.00 59 1017.3
20260901200111 92 11 0.0 2.0 0.00 0.00 0.00 58 1017.4
20260901194559 92 311 0.0 2.0 0.00 0.00 0.00 62 1017.5
20260901193057 92 129 1.0 4.0 0.00 0.00 0.00 56 1017.5
20260901191557 91 278 0.0 3.0 0.00 0.00 0.00 65 1017.7
20260901190056 91 45 0.0 1.0 0.00 0.00 0.00 67 1017.9
20260901184605 90 153 0.0 2.0 0.00 0.00 0.00 60 1018.2
20260901183105 92 142 0.0 1.0 0.00 0.00 0.00 62 1018.3
20260901181552 91 341 0.0 3.0 0.00 0.00 0.00 55 1018.5
20260901180051 91 113 0.0 2.0 0.00 0.00 0.00 66 1018.5
20260901174550 90 128 0.0 3.0 0.00 0.00 0.00 62 1018.6
20260901173048 89 214 0.0 1.0 0.00 0.00 0.00 65 1018.8
20260901171556 90 85 0.0 2.0 0.00 0.00 0.00 66 1018.9
20260901170049 91 67 1.0 2.0 0.00 0.00 0.00 62 1018.9
20260901164545 91 97 0.0 2.0 0.00 0.00 0.00 66 1019.1
20260901163052 90 114 0.0 3.0 0.00 0.00 0.00 65 1019.0
20260901161538 89 207 0.0 4.0 0.00 0.00 0.00 69 1019.2
20260901160038 88 176 0.0 2.0 0.00 0.00 0.00 70 1019.4
20260901154549 88 159 0.0 3.0 0.00 0.00 0.00 74 1019.4
20260901153039 86 117 0.0 2.0 0.00 0.00 0.00 75 1019.4
20260901151524 84 198 0.0 3.0 0.00 0.00 0.00 79 1019.4
20260901150021 82 132 0.0 1.0 0.00 0.00 0.00 84 1019.6
20260901144517 80 130 0.0 1.0 0.00 0.00 0.00 87 1019.7
20260901143011 78 124 0.0 2.0 0.00 0.00 0.00 90 1019.6
20260901141507 77 187 0.0 1.0 0.00 0.00 0.00 91 1019.5
20260901140003 76 140 0.0 0.0 0.00 0.00 0.00 91 1019.7
20260901134600 74 140 0.0 2.0 0.00 0.00 0.00 92 1019.7
20260901133055 73 80 0.0 0.0 0.00 0.00 0.00 92 1019.8
20260901131553 72 79 0.0 0.0 0.00 0.00 0.00 92 1019.8
20260901130050 71 79 0.0 0.0 0.00 0.00 0.00 92 1019.9